FW7989 Weather Reports


time (UTC)temp
C
wind
direction
speed
KPH
gust
KPH
rain 1hr
cm
rain 24hr
cm
rain mn
cm
humidity
%
barometer
mb
20260508033558 10 97 4.8 14.5 0.00 0.00 0.00 77 1015.0
20260508033058 10 82 3.2 14.5 0.00 0.00 0.00 77 1014.8
20260508032559 10 100 3.2 11.3 0.00 0.00 0.00 76 1014.9
20260508032101 10 88 4.8 11.3 0.00 0.00 0.00 76 1014.8
20260508031559 10 89 3.2 11.3 0.00 0.00 0.00 76 1014.9
20260508031101 10 110 4.8 11.3 0.00 0.00 0.00 76 1014.9
20260508030558 10 0 3.2 11.3 0.00 0.00 0.00 76 1015.0
20260508030116 10 99 3.2 11.3 0.00 0.00 0.00 76 1015.0
20260508025557 10 77 3.2 9.7 0.00 0.00 0.00 76 1015.0
20260508025058 10 92 1.6 9.7 0.00 0.00 0.00 76 1015.1
20260508024558 10 68 3.2 9.7 0.00 0.00 0.00 76 1015.0
20260508024059 10 126 3.2 9.7 0.00 0.00 0.00 77 1015.1
20260508023559 10 124 3.2 9.7 0.00 0.00 0.00 76 1015.1
20260508023104 10 109 3.2 9.7 0.00 0.00 0.00 77 1015.1
20260508022558 10 102 1.6 6.4 0.00 0.00 0.00 77 1015.0
20260508022059 10 74 3.2 8.0 0.00 0.00 0.00 77 1015.1
20260508021601 10 79 3.2 8.0 0.00 0.00 0.00 77 1015.1
20260508021101 10 76 1.6 6.4 0.00 0.00 0.00 77 1015.0
20260508020558 10 105 1.6 6.4 0.00 0.00 0.00 76 1015.1
20260508020058 10 0 0.0 9.7 0.00 0.00 0.00 76 1015.0
20260508015558 10 112 1.6 9.7 0.00 0.00 0.00 75 1015.1
20260508015058 10 0 1.6 9.7 0.00 0.00 0.00 75 1015.0
20260508014600 10 140 1.6 12.9 0.00 0.00 0.00 75 1014.9
20260508014100 11 88 3.2 12.9 0.00 0.00 0.00 76 1015.0
20260508013601 11 105 3.2 11.3 0.00 0.00 0.00 75 1015.0
20260508013059 11 106 3.2 9.7 0.00 0.00 0.00 75 1015.0
20260508012559 11 83 1.6 6.4 0.00 0.00 0.00 75 1015.1
20260508012059 11 107 1.6 6.4 0.00 0.00 0.00 75 1015.2
20260508011557 11 93 1.6 8.0 0.00 0.00 0.00 74 1015.2
20260508011058 11 118 1.6 8.0 0.00 0.00 0.00 74 1015.2
20260508010602 11 99 1.6 12.9 0.00 0.00 0.00 74 1015.2
20260508010057 11 165 1.6 12.9 0.00 0.00 0.00 74 1015.1
20260508005559 11 80 3.2 9.7 0.00 0.00 0.00 73 1015.2
20260508005059 11 99 1.6 8.0 0.00 0.00 0.00 73 1015.2
20260508004602 11 129 1.6 8.0 0.00 0.00 0.00 73 1015.2
20260508004059 11 95 1.6 11.3 0.00 0.00 0.00 73 1015.2
20260508003559 11 101 1.6 11.3 0.00 0.00 0.00 72 1015.4
20260508003108 11 106 3.2 11.3 0.00 0.00 0.00 72 1015.3
20260508002559 11 83 0.0 4.8 0.00 0.00 0.00 72 1015.3
20260508002059 11 150 0.0 6.4 0.00 0.00 0.00 71 1015.4
20260508001600 11 0 0.0 11.3 0.00 0.00 0.00 71 1015.3
20260508001058 11 161 3.2 11.3 0.00 0.00 0.00 71 1015.4
20260508000559 11 0 1.6 4.8 0.00 0.00 0.00 70 1015.4
20260507235602 11 117 1.6 6.4 0.00 0.00 0.00 70 1015.4
20260507235058 11 109 1.6 8.0 0.00 0.00 0.00 70 1015.4
20260507234557 11 136 3.2 9.7 0.00 0.00 0.00 70 1015.4
20260507234101 11 123 1.6 9.7 0.00 0.00 0.00 69 1015.4
20260507233558 11 126 3.2 9.7 0.00 0.00 0.00 68 1015.4
20260507233059 11 105 1.6 4.8 0.00 0.00 0.00 67 1015.3
20260507232600 11 80 1.6 4.8 0.00 0.00 0.00 67 1015.4
20260507232102 11 82 0.0 4.8 0.00 0.00 0.00 66 1015.5
20260507231602 11 139 1.6 4.8 0.00 0.00 0.00 66 1015.4
20260507231100 11 0 1.6 4.8 0.00 0.00 0.00 66 1015.4
20260507230602 11 128 0.0 6.4 0.00 0.00 0.00 67 1015.5
20260507230101 11 125 0.0 6.4 0.00 0.00 0.00 68 1015.5
20260507225559 10 0 1.6 6.4 0.00 0.00 0.00 69 1015.5
20260507225059 10 95 1.6 4.8 0.00 0.00 0.00 70 1015.5
20260507224616 10 96 1.6 4.8 0.00 0.00 0.00 72 1015.4
20260507224058 10 0 1.6 4.8 0.00 0.00 0.00 73 1015.4
20260507223558 10 0 0.0 4.8 0.00 0.00 0.00 75 1015.5
20260507223104 10 110 1.6 4.8 0.00 0.00 0.00 75 1015.5
20260507222559 10 82 0.0 3.2 0.00 0.00 0.00 77 1015.5
20260507222059 10 0 0.0 3.2 0.00 0.00 0.00 76 1015.6
20260507221600 11 0 0.0 3.2 0.00 0.00 0.00 74 1015.5
20260507221100 11 0 0.0 3.2 0.00 0.00 0.00 72 1015.5
20260507220558 11 0 0.0 3.2 0.00 0.00 0.00 73 1015.5
20260507220104 10 99 1.6 6.4 0.00 0.00 0.00 73 1015.6
20260507215559 10 115 1.6 6.4 0.00 0.00 0.00 73 1015.6
20260507215059 10 155 1.6 6.4 0.00 0.00 0.00 74 1015.6
20260507214606 10 92 0.0 6.4 0.00 0.00 0.00 76 1015.7
20260507214058 10 69 1.6 6.4 0.00 0.00 0.00 78 1015.6
20260507213558 10 0 0.0 0.0 0.00 0.00 0.00 81 1015.7
20260507213059 10 0 0.0 0.0 0.00 0.00 0.00 81 1015.7
20260507212558 10 0 0.0 0.0 0.00 0.00 0.00 79 1015.6
20260507212100 11 0 0.0 0.0 0.00 0.00 0.00 77 1015.6
20260507211629 11 0 0.0 3.2 0.00 0.00 0.00 78 1015.4
20260507211058 11 0 0.0 3.2 0.00 0.00 0.00 78 1015.5
20260507210559 11 0 0.0 3.2 0.00 0.00 0.00 78 1015.4
20260507210103 11 0 1.6 3.2 0.00 0.00 0.00 78 1015.4
20260507205602 11 57 1.6 3.2 0.00 0.00 0.00 78 1015.4
20260507205059 11 57 1.6 3.2 0.00 0.00 0.00 79 1015.4
20260507204606 11 57 1.6 3.2 0.00 0.00 0.00 79 1015.4
20260507204058 11 0 0.0 1.6 0.00 0.00 0.00 79 1015.4
20260507203559 11 0 0.0 1.6 0.00 0.00 0.00 79 1015.4
20260507203110 11 0 0.0 3.2 0.00 0.00 0.00 78 1015.2
20260507202558 11 0 0.0 3.2 0.00 0.00 0.00 77 1015.3
20260507202058 11 57 1.6 3.2 0.00 0.00 0.00 77 1015.2
20260507201613 11 57 1.6 3.2 0.00 0.00 0.00 77 1015.1
20260507201059 11 57 0.0 3.2 0.00 0.00 0.00 78 1015.1
20260507200601 11 0 0.0 1.6 0.00 0.00 0.00 78 1015.1
20260507200104 11 57 0.0 3.2 0.00 0.00 0.00 77 1015.0
20260507195604 12 0 0.0 3.2 0.00 0.00 0.00 77 1015.0
20260507195102 12 28 0.0 3.2 0.00 0.00 0.00 75 1015.0
20260507194558 12 0 0.0 3.2 0.00 0.00 0.00 76 1015.0
20260507194103 12 347 1.6 3.2 0.00 0.00 0.00 75 1015.0
20260507193558 12 340 0.0 1.6 0.00 0.00 0.00 76 1015.0
20260507193101 12 0 0.0 0.0 0.00 0.00 0.00 77 1014.9
20260507192558 12 0 0.0 0.0 0.00 0.00 0.00 76 1014.9
20260507192058 12 0 0.0 1.6 0.00 0.00 0.00 76 1014.7
20260507191558 12 0 0.0 1.6 0.00 0.00 0.00 74 1014.9
20260507191057 12 0 0.0 1.6 0.00 0.00 0.00 76 1014.7
20260507190604 12 0 0.0 3.2 0.00 0.00 0.00 75 1014.6
20260507190057 12 0 0.0 3.2 0.00 0.00 0.00 73 1014.6
20260507185557 12 336 0.0 3.2 0.00 0.00 0.00 72 1014.6
20260507185102 12 336 0.0 6.4 0.00 0.00 0.00 72 1014.6
20260507184556 12 319 1.6 6.4 0.00 0.00 0.00 73 1014.6
20260507184059 13 288 3.2 6.4 0.00 0.00 0.00 73 1014.7
20260507183558 13 319 3.2 6.4 0.00 0.00 0.00 73 1014.7
20260507183058 13 270 3.2 9.7 0.00 0.00 0.00 71 1014.8
20260507182559 13 277 1.6 9.7 0.00 0.00 0.00 72 1014.8
20260507182102 13 291 4.8 9.7 0.00 0.00 0.00 69 1014.7
20260507181559 14 298 3.2 4.8 0.00 0.00 0.00 70 1014.6
20260507181058 14 288 3.2 6.4 0.00 0.00 0.00 70 1014.6
20260507180602 14 327 1.6 6.4 0.00 0.00 0.00 67 1014.6
20260507180058 15 302 1.6 6.4 0.00 0.00 0.00 67 1014.6
20260507175558 15 344 1.6 3.2 0.00 0.00 0.00 66 1014.5
20260507175058 15 0 0.0 6.4 0.00 0.00 0.00 65 1014.6
20260507174600 15 0 1.6 6.4 0.00 0.00 0.00 65 1014.6
20260507174059 15 324 3.2 6.4 0.00 0.00 0.00 67 1014.5
20260507173559 15 306 1.6 6.4 0.00 0.00 0.00 66 1014.5
20260507173100 15 295 3.2 9.7 0.00 0.00 0.00 66 1014.5
20260507172601 15 352 4.8 11.3 0.00 0.00 0.00 66 1014.5
20260507172059 15 311 4.8 11.3 0.00 0.00 0.00 65 1014.6
20260507171607 15 294 1.6 8.0 0.00 0.00 0.00 68 1014.5
20260507171059 15 243 3.2 8.0 0.00 0.00 0.00 70 1014.5
20260507170559 15 269 3.2 12.9 0.00 0.00 0.00 68 1014.6
20260507170059 15 292 4.8 12.9 0.00 0.00 0.00 67 1014.5
20260507165558 15 317 3.2 11.3 0.00 0.00 0.00 69 1014.5
20260507165100 15 352 6.4 12.9 0.00 0.00 0.00 70 1014.5
20260507164602 15 317 6.4 12.9 0.00 0.00 0.00 68 1014.5
20260507164058 15 284 1.6 11.3 0.00 0.00 0.00 67 1014.5
20260507163603 15 251 6.4 11.3 0.00 0.00 0.00 69 1014.6
20260507163058 16 234 4.8 11.3 0.00 0.00 0.00 63 1014.5
20260507162558 16 291 1.6 16.1 0.00 0.00 0.00 63 1014.5
20260507162058 16 229 6.4 16.1 0.00 0.00 0.00 64 1014.5
20260507161600 16 166 4.8 16.1 0.00 0.00 0.00 58 1014.5
20260507161059 16 221 8.0 20.9 0.00 0.00 0.00 55 1014.5
20260507160559 16 232 9.7 20.9 0.00 0.00 0.00 57 1014.6
20260507160106 16 205 8.0 17.7 0.00 0.00 0.00 55 1014.6
20260507155558 16 198 6.4 14.5 0.00 0.00 0.00 59 1014.6
20260507155058 16 154 6.4 14.5 0.00 0.00 0.00 59 1014.5
20260507154558 15 184 8.0 14.5 0.00 0.00 0.00 58 1014.6
20260507154059 15 206 3.2 16.1 0.00 0.00 0.00 59 1014.6
20260507153558 15 208 8.0 16.1 0.00 0.00 0.00 60 1014.5
20260507153102 15 280 8.0 16.1 0.00 0.00 0.00 61 1014.6
20260507152601 15 245 3.2 14.5 0.00 0.00 0.00 65 1014.6
20260507152059 15 277 6.4 14.5 0.00 0.00 0.00 61 1014.6
20260507151558 15 201 3.2 11.3 0.00 0.00 0.00 61 1014.6
20260507151058 15 211 4.8 11.3 0.00 0.00 0.00 61 1014.6
20260507150558 15 224 4.8 11.3 0.00 0.00 0.00 64 1014.6
20260507150058 15 202 1.6 9.7 0.00 0.00 0.00 61 1014.7
20260507145558 15 0 0.0 3.2 0.00 0.00 0.00 63 1014.7
20260507145058 15 0 0.0 4.8 0.00 0.00 0.00 66 1014.7
20260507144559 15 286 1.6 11.3 0.00 0.00 0.00 66 1014.8
20260507144059 15 235 1.6 11.3 0.00 0.00 0.00 67 1014.9
20260507143600 15 301 4.8 11.3 0.00 0.00 0.00 68 1014.9
20260507143100 15 291 4.8 11.3 0.00 0.00 0.00 69 1014.9
20260507142558 15 313 4.8 11.3 0.00 0.00 0.00 68 1014.9
20260507142059 15 274 3.2 9.7 0.00 0.00 0.00 67 1015.0
20260507141558 15 294 3.2 9.7 0.00 0.00 0.00 66 1015.0
20260507141139 15 313 3.2 6.4 0.00 0.00 0.00 68 1015.0
20260507140600 15 304 1.6 4.8 0.00 0.00 0.00 68 1015.1
20260507140109 15 0 1.6 6.4 0.00 0.00 0.00 65 1015.1
20260507135559 15 291 1.6 6.4 0.00 0.00 0.00 65 1015.0
20260507135103 15 309 1.6 4.8 0.00 0.00 0.00 67 1014.9
20260507134558 15 311 1.6 4.8 0.00 0.00 0.00 68 1015.0
20260507134058 15 296 1.6 4.8 0.00 0.00 0.00 66 1015.0
20260507133559 14 294 1.6 4.8 0.00 0.00 0.00 67 1015.0
20260507133056 14 332 0.0 4.8 0.00 0.00 0.00 71 1015.1
20260507132558 14 302 1.6 4.8 0.00 0.00 0.00 70 1015.1
20260507132059 13 0 1.6 4.8 0.00 0.00 0.00 71 1015.1
20260507131602 13 298 1.6 6.4 0.00 0.00 0.00 72 1015.1
20260507131059 13 298 3.2 6.4 0.00 0.00 0.00 72 1015.1
20260507130559 13 290 3.2 9.7 0.00 0.00 0.00 72 1015.1
20260507130057 13 306 4.8 9.7 0.00 0.00 0.00 75 1015.1
20260507125558 13 273 4.8 12.9 0.00 0.00 0.00 76 1015.2
20260507125058 13 289 4.8 14.5 0.00 0.00 0.00 74 1015.2
20260507124600 13 289 6.4 14.5 0.00 0.00 0.00 73 1015.2
20260507124059 13 316 3.2 14.5 0.00 0.00 0.00 73 1015.3
20260507123558 13 231 3.2 16.1 0.00 0.00 0.00 70 1015.4
20260507123100 13 282 8.0 16.1 0.00 0.00 0.00 66 1015.2
20260507122558 14 200 6.4 11.3 0.00 0.00 0.00 64 1015.2
20260507122059 14 189 4.8 12.9 0.00 0.00 0.00 61 1015.2
20260507121601 14 208 6.4 14.5 0.00 0.00 0.00 63 1015.2
20260507121058 14 182 8.0 14.5 0.00 0.00 0.00 60 1015.2
20260507120558 14 215 4.8 11.3 0.00 0.00 0.00 64 1015.2
20260507120059 15 192 4.8 11.3 0.00 0.00 0.00 61 1015.2
20260507115559 15 188 4.8 16.1 0.00 0.00 0.00 63 1015.2
20260507115058 15 150 6.4 17.7 0.00 0.00 0.00 63 1015.2
20260507114557 14 170 8.0 17.7 0.00 0.00 0.00 65 1015.3
20260507114058 14 173 8.0 17.7 0.00 0.00 0.00 64 1015.4
20260507113602 14 201 8.0 19.3 0.00 0.00 0.00 63 1015.4
20260507113059 14 165 11.3 19.3 0.00 0.00 0.00 62 1015.3
20260507112559 15 171 6.4 19.3 0.00 0.00 0.00 65 1015.3
20260507112101 15 254 6.4 19.3 0.00 0.00 0.00 63 1015.3
20260507111559 15 175 8.0 19.3 0.00 0.00 0.00 59 1015.3
20260507111058 15 211 9.7 19.3 0.00 0.00 0.00 64 1015.3
20260507110559 15 179 8.0 17.7 0.00 0.00 0.00 63 1015.3
20260507110101 15 146 8.0 19.3 0.00 0.00 0.00 64 1015.4
20260507105558 15 173 6.4 19.3 0.00 0.00 0.00 63 1015.4
20260507105058 15 180 9.7 19.3 0.00 0.00 0.00 62 1015.4
20260507104557 15 184 9.7 19.3 0.00 0.00 0.00 65 1015.5
20260507104059 15 178 9.7 16.1 0.00 0.00 0.00 64 1015.6
20260507103559 15 136 8.0 22.5 0.00 0.00 0.00 64 1015.4
20260507103057 15 156 9.7 22.5 0.00 0.00 0.00 63 1015.5
20260507102558 15 163 8.0 16.1 0.00 0.00 0.00 65 1015.5
20260507102058 15 188 6.4 16.1 0.00 0.00 0.00 67 1015.6
20260507101608 15 214 6.4 17.7 0.00 0.00 0.00 67 1015.6
20260507101058 15 201 8.0 17.7 0.00 0.00 0.00 68 1015.7
20260507100602 15 214 9.7 17.7 0.00 0.00 0.00 69 1015.7
20260507100101 15 203 9.7 17.7 0.00 0.00 0.00 66 1015.6
20260507095600 15 150 6.4 16.1 0.00 0.00 0.00 68 1015.6
20260507095059 15 159 6.4 17.7 0.00 0.00 0.00 67 1015.6
20260507094604 15 186 6.4 17.7 0.00 0.00 0.00 67 1015.5
20260507094101 15 0 6.4 14.5 0.00 0.00 0.00 70 1015.6
20260507093558 15 109 4.8 22.5 0.00 0.00 0.00 66 1015.4
20260507093100 15 135 4.8 22.5 0.00 0.00 0.00 70 1015.6
20260507092559 15 178 4.8 17.7 0.00 0.00 0.00 70 1015.6
20260507092058 15 188 8.0 17.7 0.00 0.00 0.00 72 1015.6
20260507091605 15 134 8.0 14.5 0.00 0.00 0.00 70 1015.7
20260507091058 14 171 8.0 14.5 0.00 0.00 0.00 74 1015.7
20260507090559 13 101 8.0 16.1 0.00 0.00 0.00 72 1015.8
20260507090113 13 178 8.0 16.1 0.00 0.00 0.00 74 1015.7
20260507085559 13 163 6.4 14.5 0.00 0.00 0.00 73 1015.8
20260507085059 13 134 6.4 12.9 0.00 0.00 0.00 72 1015.7
20260507084600 12 182 6.4 12.9 0.00 0.00 0.00 72 1015.7
20260507084059 12 103 6.4 12.9 0.00 0.00 0.00 73 1015.7
20260507083602 12 149 6.4 14.5 0.00 0.00 0.00 74 1015.7
20260507083102 12 128 6.4 14.5 0.00 0.00 0.00 75 1015.7
20260507082559 12 130 3.2 16.1 0.00 0.00 0.00 75 1015.7
20260507082059 11 90 8.0 16.1 0.00 0.00 0.00 74 1015.6
20260507081602 11 150 8.0 16.1 0.00 0.00 0.00 74 1015.7
20260507081059 11 150 4.8 14.5 0.00 0.00 0.00 76 1015.7
20260507080559 11 74 4.8 16.1 0.00 0.00 0.00 75 1015.7
20260507075558 11 96 6.4 16.1 0.00 0.00 0.00 74 1015.5
20260507075058 11 90 4.8 12.9 0.00 0.00 0.00 75 1015.5
20260507074559 11 150 4.8 12.9 0.00 0.00 0.00 74 1015.5
20260507074058 11 103 6.4 12.9 0.00 0.00 0.00 74 1015.5
20260507073558 11 88 1.6 12.9 0.00 0.00 0.00 75 1015.5
20260507073110 11 102 3.2 12.9 0.00 0.00 0.00 75 1015.4
20260507072559 11 0 4.8 12.9 0.00 0.00 0.00 75 1015.5
20260507072058 11 111 4.8 12.9 0.00 0.00 0.00 76 1015.5
20260507071600 10 91 4.8 12.9 0.00 0.00 0.00 77 1015.4
20260507071059 10 82 4.8 12.9 0.00 0.00 0.00 76 1015.4
20260507070559 10 78 3.2 12.9 0.00 0.00 0.00 76 1015.4
20260507070138 10 92 1.6 12.9 0.00 0.00 0.00 77 1015.4
20260507065602 10 114 6.4 12.9 0.00 0.00 0.00 77 1015.4
20260507065058 10 101 3.2 14.5 0.00 0.00 0.00 77 1015.3
20260507064600 10 98 3.2 14.5 0.00 0.00 0.00 78 1015.4
20260507064058 10 94 4.8 14.5 0.00 0.00 0.00 78 1015.3
20260507063559 9 100 1.6 12.9 0.00 0.00 0.00 78 1015.4
20260507063102 9 0 3.2 12.9 0.00 0.00 0.00 78 1015.4
20260507062558 9 98 4.8 12.9 0.00 0.00 0.00 79 1015.4
20260507062101 9 136 3.2 6.4 0.00 0.00 0.00 80 1015.5
20260507061559 8 0 0.0 6.4 0.00 0.00 0.00 80 1015.4
20260507061059 8 121 1.6 6.4 0.00 0.00 0.00 80 1015.4
20260507060558 8 150 0.0 6.4 0.00 0.00 0.00 80 1015.4
20260507060059 8 173 1.6 11.3 0.00 0.00 0.00 80 1015.3
20260507055559 8 123 1.6 11.3 0.00 0.00 0.00 80 1015.3
20260507055059 8 154 3.2 12.9 0.00 0.00 0.00 80 1015.3
20260507054613 8 108 4.8 12.9 0.00 0.00 0.00 79 1015.1
20260507054058 8 150 1.6 9.7 0.00 0.00 0.00 81 1015.0
20260507053600 8 119 3.2 8.0 0.00 0.00 0.00 81 1015.1
20260507053058 8 107 1.6 4.8 0.00 0.00 0.00 82 1015.0
20260507052600 8 86 0.0 3.2 0.00 0.00 0.00 82 1015.1
20260507052058 8 0 0.0 3.2 0.00 0.00 0.00 83 1015.1
20260507051556 8 0 0.0 3.2 0.00 0.00 0.00 82 1015.1
20260507051058 8 0 0.0 6.4 0.00 0.00 0.00 82 1015.1
20260507050558 7 0 0.0 6.4 0.00 0.00 0.00 81 1015.2
20260507050057 7 0 0.0 3.2 0.00 0.00 0.00 82 1015.0
20260507045601 7 0 0.0 1.6 0.00 0.00 0.00 81 1015.0
20260507045058 7 132 0.0 1.6 0.00 0.00 0.00 82 1015.0
20260507044603 7 0 0.0 0.0 0.00 0.00 0.00 83 1015.0
20260507044058 7 0 0.0 0.0 0.00 0.00 0.00 83 1015.0
20260507043558 7 0 0.0 0.0 0.00 0.00 0.00 82 1015.1
20260507043059 7 0 0.0 0.0 0.00 0.00 0.00 82 1014.9
20260507042559 8 0 0.0 1.6 0.00 0.00 0.00 82 1014.9
20260507042100 8 0 0.0 1.6 0.00 0.00 0.00 82 1014.9
20260507041605 8 0 0.0 4.8 0.00 0.00 0.00 80 1014.9
20260507041058 8 126 0.0 4.8 0.00 0.00 0.00 79 1014.9
20260507040601 8 109 0.0 4.8 0.00 0.00 0.00 78 1015.0
20260507040058 8 0 1.6 3.2 0.00 0.00 0.00 78 1015.0
20260507035558 8 0 0.0 3.2 0.00 0.00 0.00 79 1014.9
20260507035058 8 0 0.0 3.2 0.00 0.00 0.00 79 1015.0
20260507034604 8 0 0.0 6.4 0.00 0.00 0.00 79 1015.0
20260507034057 8 159 0.0 6.4 0.00 0.00 0.00 78 1014.9